Weather History for Bennington, VT

Change the Weather History Date:

Monday, January 13, 2014

  Actual Average Record
Temperature  
Mean Temperature 38 °F 21 °F  
Max Temperature 52 °F 30 °F - ()
Min Temperature 24 °F 11 °F - ()
Degree Days  
Heating Degree Days 27 44  
Month to date heating degree days 584 568  
Since 1 July heating degree days 3247 3340  
Cooling Degree Days 0 0  
Month to date cooling degree days 0 0  
Year to date cooling degree days 0 0  
Moisture  
Dew Point 25 °F    
Average Humidity 62    
Maximum Humidity 88    
Minimum Humidity 35    
Precipitation  
Precipitation 0.00 in 0.09 in - ()
Month to date precipitation 2.21 1.33  
Year to date precipitation 2.21 1.33  
Sea Level Pressure  
Sea Level Pressure 29.96 in    
Wind  
Wind Speed 5 mph (South)    
Max Wind Speed 18 mph    
Max Gust Speed 21 mph    
Visibility 10 miles    
Events      
T = Trace of Precipitation, MM = Missing Value Source: NWS Daily Summary

Daily Weather History Graph

Daily Weather History Graph

Search for Another Location

Airport:

Trip Planner

Search our weather history database for the weather conditions in past years. The results will help you decide how hot, cold, wet, or windy it might be!

Date:

Astronomy

Jan. 13, 2014 Rise Set
Actual Time 7:22 AM EST 4:41 PM EST
Civil Twilight 6:50 AM EST 5:13 PM EST
Nautical Twilight 6:15 AM EST 5:48 PM EST
Astronomical Twilight 5:41 AM EST 6:22 PM EST
Moon 2:55 PM EST (1/13) 5:08 AM EST (1/13)
Length of Visible Light 10h 22m
Length of Day
9h 19m
Waxing Gibbous, 95% of the Moon is Illuminated
Jan 13
Waxing Gibbous
Jan 15
Full
Jan 24
Last Quarter
Jan 30
New
Feb 6
First Quarter

Hourly Weather History & Observations

Time (EST) Temp. Windchill Dew Point Humidity Pressure Visibility Wind Dir Wind Speed Gust Speed Precip Events Conditions
12:54 AM 34.0 °F 31.0 °F 21.0 °F 59% 30.02 in 10.0 mi SSW 3.5 mph - N/A   Overcast
1:54 AM 33.1 °F 28.7 °F 21.0 °F 61% 30.04 in 10.0 mi South 4.6 mph - N/A   Clear
2:54 AM 27.0 °F - 21.0 °F 78% 30.04 in 10.0 mi Calm Calm - N/A   Clear
3:54 AM 26.1 °F - 21.9 °F 84% 30.06 in 10.0 mi Calm Calm - N/A   Clear
4:54 AM 25.0 °F - 21.0 °F 85% 30.07 in 10.0 mi Calm Calm - N/A   Clear
5:54 AM 25.0 °F - 21.0 °F 85% 30.06 in 10.0 mi Calm Calm - N/A   Clear
6:54 AM 32.0 °F 27.5 °F 21.9 °F 66% 30.04 in 10.0 mi ESE 4.6 mph - N/A   Clear
7:54 AM 30.0 °F 26.5 °F 21.9 °F 72% 30.04 in 10.0 mi Variable 3.5 mph - N/A   Clear
8:54 AM 33.1 °F - 24.1 °F 70% 30.06 in 10.0 mi Calm Calm - N/A   Clear
9:54 AM 36.0 °F - 24.1 °F 62% 30.04 in 10.0 mi Calm Calm - N/A   Clear
10:54 AM 42.1 °F - 25.0 °F 51% 30.02 in 10.0 mi North - - N/A   Clear
11:54 AM - - - N/A% 29.95 in - North - - N/A   Unknown
12:54 PM 51.1 °F - 24.1 °F 35% 29.93 in 10.0 mi South 6.9 mph - N/A   Clear
1:54 PM 52.0 °F - 26.1 °F 37% 29.91 in 10.0 mi South 10.4 mph 20.7 mph N/A   Clear
2:54 PM 50.0 °F - 25.0 °F 38% 29.91 in 10.0 mi SSW 9.2 mph 20.7 mph N/A   Clear
3:54 PM 50.0 °F - 25.0 °F 38% 29.93 in 10.0 mi Variable 3.5 mph - N/A   Clear
4:54 PM 48.0 °F - 26.1 °F 42% 29.93 in 10.0 mi Variable 4.6 mph - N/A   Clear
5:54 PM 48.0 °F - 27.0 °F 44% 29.93 in 10.0 mi South 6.9 mph - N/A   Clear
6:54 PM 48.0 °F - 28.0 °F 46% 29.88 in 10.0 mi South 11.5 mph 18.4 mph N/A   Clear
7:54 PM 50.0 °F - 28.9 °F 44% 29.85 in 10.0 mi SSE 10.4 mph 18.4 mph N/A   Overcast
8:54 PM 48.9 °F - 28.9 °F 46% 29.85 in 10.0 mi SSE 9.2 mph 20.7 mph N/A   Partly Cloudy
9:54 PM 48.9 °F - 30.0 °F 48% 29.85 in 10.0 mi SSE 8.1 mph - N/A   Scattered Clouds
10:54 PM 48.9 °F - 30.9 °F 50% 29.82 in 10.0 mi North - - N/A   Overcast
11:54 PM 48.0 °F - 32.0 °F 54% 29.79 in 10.0 mi South 6.9 mph - N/A   Overcast